map of FDH home
Great Circle Mapper logo
FDH - Airport
Location
City:  Friedrichshafen, Baden-Württemberg, Germany
Near (Alt.):Löwenthal
Name:Bodensee Airport Friedrichshafen
Old (Alt.):Friedrichshafen Airport
ICAO / IATA:EDNY / FDH

Details
Type:Airport (Flugplatz, Airfield)
Use:Public/Civil
Latitude:47°40'17"N (47.671317)
Longitude:9°30'41"E (9.511486)
Datum:WGS 1984
Elevation:1367 ft (417 m)
Runways:1
Longest:7729 × 148 ft (2356 × 45 m), paved

Time
Time Zone:UTC+1 (DST+2)
Local Time:

Weather
METAR:EDNY 200920Z VRB02KT 9999 FEW008 SCT086 21/15 Q1017 RMK ATIS L
TAF:EDNY 200500Z 2006/2106 VRB03KT 9000 BKN040
TEMPO 2006/2017 4500 SHRA PROB40
TEMPO 2006/2015 TSRA BKN020CB

Related Locations
Nearby:
Farthest:CHT: 12042 mi / 19380 km
Waitangi [Tuuta], Chatham Islands, NZ

Find:

   beyond  
but within

Other Information
Maps:
NOTAMs:
Links:
Sources:

  
flag of Germany
flag of Baden-Württemberg
  

Sectional Chart

Flight Planning
at skyvector.com

Satellite Image

Google Maps Satellite View

 

Copyright © 2004-2014 Karl L. Swartz. All rights reserved.
The Great Circle Mapper name and logo are trademarks of the Great Circle Mapper.
All other trademarks mentioned herein belong to their respective owners.
Please see credits for attibutions and further copyright information.

  Follow gcmap on Facebook Follow gcmap on Twitter

hCard Microformat

Geo Microformat